Highspire, PA

10:36 PM EDT on August 27, 2016 (GMT -0400)
Harrisburg International

Weather History for KMDT - May, 2013

Change the Weather History Date:

Wednesday, May 8, 2013

  Actual Average Record
Temperature  
Mean Temperature 64 °F 60 °F  
Max Temperature 73 °F 70 °F 92 °F (2000)
Min Temperature 54 °F 49 °F 34 °F (1947)
Degree Days  
Heating Degree Days 1 6  
Month to date heating degree days 59 57  
Since 1 July heating degree days 5024 5160  
Cooling Degree Days 0 1  
Month to date cooling degree days 0 8  
Year to date cooling degree days 7 15  
Growing Degree Days 14 (Base 50)    
Moisture  
Dew Point 56 °F    
Average Humidity 71    
Maximum Humidity 93    
Minimum Humidity 49    
Precipitation  
Precipitation 0.67 in 0.12 in 2.63 in (1960)
Month to date precipitation 0.78 0.98  
Year to date precipitation 10.37 12.72  
Snow  
Snow 0.00 in 0.00 in 0.00 in (2002)
Month to date snowfall 0.0 0.0  
Since 1 July snowfall 17.0 30.6  
Snow Depth 0.00 in    
Sea Level Pressure  
Sea Level Pressure 29.96 in    
Wind  
Wind Speed 4 mph (SSE)    
Max Wind Speed 26 mph    
Max Gust Speed 32 mph    
Visibility 7 miles    
Events Rain , Thunderstorm    
T = Trace of Precipitation, MM = Missing Value Source: NWS Daily Summary

Daily Weather History Graph

Daily Weather History Graph

Search for Another Location

Airport or City:

Trip Planner

Search our weather history database for the weather conditions in past years. The results will help you decide how hot, cold, wet, or windy it might be!

Date:

Astronomy

May. 08, 2013 Rise Set
Actual Time 5:58 AM EDT 8:09 PM EDT
Civil Twilight 5:28 AM EDT 8:39 PM EDT
Nautical Twilight 4:51 AM EDT 9:16 PM EDT
Astronomical Twilight 4:10 AM EDT 9:57 PM EDT
Moon 5:05 AM EDT (5/8) 7:05 PM EDT (5/8)
Length of Visible Light 15h 11m
Length of Day
14h 11m
Waning Crescent, 2% of the Moon is Illuminated
May 8
Waning Crescent
May 9
New
May 18
First Quarter
May 25
Full
May 31
Last Quarter

Hourly Weather History & Observations

Time (EDT) Temp. Dew Point Humidity Pressure Visibility Wind Dir Wind Speed Gust Speed Precip Events Conditions
12:56 AM 61.0 °F 57.9 °F 90% 30.02 in 10.0 mi ESE 6.9 mph - 0.03 in   Overcast
1:26 AM 60.8 °F 57.2 °F 88% 30.01 in 5.0 mi SSE 5.8 mph - 0.00 in Rain Light Rain
1:45 AM 60.8 °F 57.2 °F 88% 30.00 in 2.0 mi East 9.2 mph - 0.04 in Rain Heavy Rain
1:56 AM 60.1 °F 57.9 °F 93% 30.00 in 4.0 mi ESE 8.1 mph - 0.08 in Rain Light Rain
2:56 AM 60.1 °F 57.0 °F 90% 29.99 in 4.0 mi ESE 8.1 mph - 0.01 in   Overcast
3:56 AM 60.1 °F 57.0 °F 90% 29.98 in 4.0 mi East 5.8 mph - N/A   Overcast
4:56 AM 59.0 °F 57.0 °F 93% 29.97 in 4.0 mi East 3.5 mph - 0.00 in   Overcast
5:39 AM 59.0 °F 57.2 °F 94% 29.97 in 4.0 mi East 5.8 mph - N/A   Overcast
5:56 AM 59.0 °F 57.0 °F 93% 29.98 in 4.0 mi Calm Calm - N/A   Overcast
6:05 AM 59.0 °F 57.2 °F 94% 29.97 in 6.0 mi Calm Calm - N/A   Overcast
6:56 AM 59.0 °F 57.0 °F 93% 29.98 in 7.0 mi Calm Calm - N/A   Mostly Cloudy
7:31 AM 60.8 °F 57.2 °F 88% 29.98 in 9.0 mi ESE 3.5 mph - N/A   Mostly Cloudy
7:56 AM 61.0 °F 57.0 °F 87% 30.00 in 10.0 mi SE 4.6 mph - N/A   Mostly Cloudy
8:56 AM 61.0 °F 57.0 °F 87% 30.00 in 10.0 mi SW 3.5 mph - 0.00 in   Mostly Cloudy
9:03 AM 60.8 °F 57.2 °F 88% 30.00 in 10.0 mi SSW 5.8 mph - N/A   Overcast
9:28 AM 62.6 °F 57.2 °F 82% 29.99 in 4.0 mi WSW 3.5 mph - 0.01 in Rain Light Rain
9:54 AM 60.8 °F 57.2 °F 88% 29.99 in 7.0 mi SW 6.9 mph - 0.01 in   Overcast
9:56 AM 61.0 °F 57.0 °F 87% 29.99 in 8.0 mi SW 5.8 mph - 0.01 in   Overcast
10:25 AM 60.8 °F 57.2 °F 88% 29.99 in 8.0 mi West 5.8 mph - N/A   Overcast
10:56 AM 62.1 °F 57.0 °F 84% 30.00 in 9.0 mi NW 4.6 mph - N/A   Overcast
11:56 AM 63.0 °F 57.0 °F 81% 29.99 in 9.0 mi NW 3.5 mph - N/A   Overcast
12:56 PM 66.0 °F 55.9 °F 70% 29.97 in 10.0 mi Variable 3.5 mph - N/A   Scattered Clouds
1:56 PM 68.0 °F 55.9 °F 65% 29.95 in 10.0 mi Calm Calm - N/A   Scattered Clouds
2:56 PM 70.0 °F 55.0 °F 59% 29.93 in 10.0 mi SSE 3.5 mph - N/A   Mostly Cloudy
3:56 PM 72.0 °F 52.0 °F 49% 29.91 in 10.0 mi Calm Calm - N/A   Mostly Cloudy
4:42 PM 69.8 °F 53.6 °F 56% 29.89 in 10.0 mi SSE 5.8 mph - N/A Thunderstorm Thunderstorm
4:56 PM 69.1 °F 53.1 °F 57% 29.90 in 10.0 mi East 4.6 mph - 0.00 in Rain , Thunderstorm Light Thunderstorms and Rain
5:09 PM 66.2 °F 57.2 °F 73% 29.91 in 3.0 mi South 9.2 mph - 0.00 in Rain , Thunderstorm Thunderstorms with Small Hail
5:11 PM 64.4 °F 57.2 °F 77% 29.91 in 7.0 mi SW 16.1 mph 31.1 mph 0.04 in Rain , Thunderstorm Thunderstorms with Small Hail
5:17 PM 60.8 °F 55.4 °F 82% 29.91 in 7.0 mi SW 16.1 mph 32.2 mph 0.28 in Rain , Thunderstorm Thunderstorms with Small Hail
5:22 PM 60.8 °F 55.4 °F 82% 29.91 in 7.0 mi WSW 17.3 mph 32.2 mph 0.39 in Rain , Thunderstorm Thunderstorms and Rain
5:25 PM 60.8 °F 55.4 °F 82% 29.91 in 7.0 mi SW 16.1 mph 23.0 mph 0.43 in Rain , Thunderstorm Thunderstorms and Rain
5:56 PM 60.1 °F 52.0 °F 75% 29.92 in 7.0 mi ENE 5.8 mph - 0.50 in Rain , Thunderstorm Light Thunderstorms and Rain
6:36 PM 59.0 °F 55.4 °F 88% 29.94 in 5.0 mi WSW 10.4 mph - 0.03 in Rain Light Rain
6:56 PM 57.9 °F 55.0 °F 90% 29.94 in 5.0 mi NW 8.1 mph - 0.04 in Rain Light Rain
7:56 PM 59.0 °F 55.0 °F 87% 29.95 in 10.0 mi Variable 4.6 mph - 0.03 in   Mostly Cloudy
8:56 PM 59.0 °F 55.0 °F 87% 29.96 in 10.0 mi ENE 3.5 mph - N/A   Mostly Cloudy
9:56 PM 55.9 °F 53.1 °F 90% 29.96 in 9.0 mi SSE 6.9 mph - N/A   Scattered Clouds
10:56 PM 55.9 °F 52.0 °F 87% 29.97 in 10.0 mi SE 3.5 mph - N/A   Mostly Cloudy
11:56 PM 55.9 °F 52.0 °F 87% 29.96 in 9.0 mi SSE 3.5 mph - N/A   Mostly Cloudy